Location: Ar Ranvel
(48.3000°N, 4.8833°W)
Time: 10:08:50
(UTC+00:00)

Cosmos 2278 Rocket - Pass Details

Date: 16 June 2021
Orbit: 840 x 847 km, 71.0° (Epoch: 01 August)

Event Time Altitude Azimuth Distance (km) Brightness Sun altitude
Rises 22:05:11 0° 336° (NNW) 3,411 7.4 -12.2°
Reaches altitude 10° 22:07:59 10° 347° (NNW) 2,474 5.9 -12.4°
Maximum altitude 22:12:53 29° 47° (NE) 1,507 3.6 -12.8°
Drops below altitude 10° 22:17:46 10° 107° (ESE) 2,466 4.2 -13.2°
Enters shadow 22:18:05 - 109° (ESE) 2,564 4.3 -13.3°
